New Orleans, LA

6:24 AM CDT on August 18, 2017 (GMT -0500)
New Orleans International

Weather History for KMSY - November, 2011

Change the Weather History Date:

Wednesday, November 30, 2011

  Actual Average Record
Temperature  
Mean Temperature 52 °F -  
Max Temperature 59 °F 66 °F 84 °F (1981)
Min Temperature 44 °F 47 °F 28 °F (1979)
Degree Days  
Heating Degree Days 14    
Growing Degree Days 2 (Base 50)    
Moisture  
Dew Point 36 °F    
Average Humidity 60    
Maximum Humidity 76    
Minimum Humidity 38    
Precipitation  
Precipitation 0.00 in - - ()
Sea Level Pressure  
Sea Level Pressure 30.20 in    
Wind  
Wind Speed 4 mph (NE)    
Max Wind Speed 10 mph    
Max Gust Speed -    
Visibility 10 miles    
Events      
Averages and records for this station are not official NWS values.
T = Trace of Precipitation, MM = Missing Value Source: NWS Daily Summary

Daily Weather History Graph

Daily Weather History Graph

Search for Another Location

Airport or City:

Trip Planner

Search our weather history database for the weather conditions in past years. The results will help you decide how hot, cold, wet, or windy it might be!

Date:

Astronomy

Nov. 30, 2011 Rise Set
Actual Time 6:38 AM CST 5:00 PM CST
Civil Twilight 6:12 AM CST 5:26 PM CST
Nautical Twilight 5:42 AM CST 5:56 PM CST
Astronomical Twilight 5:13 AM CST 6:25 PM CST
Moon 11:08 AM CST (11/30) 10:43 PM CST (11/30)
Length of Visible Light 11h 14m
Length of Day
10h 22m
Waxing Crescent, 34% of the Moon is Illuminated
Nov 30
Waxing Crescent
Dec 2
First Quarter
Dec 10
Full
Dec 17
Last Quarter
Dec 24
New

Hourly Weather History & Observations

Time (CST) Temp. Windchill Dew Point Humidity Pressure Visibility Wind Dir Wind Speed Gust Speed Precip Events Conditions
12:53 AM 48.9 °F - 37.9 °F 66% 30.16 in 10.0 mi NE 4.6 mph - N/A   Clear
1:53 AM 48.0 °F - 39.0 °F 71% 30.17 in 10.0 mi East 3.5 mph - N/A   Clear
2:53 AM 46.9 °F - 37.9 °F 71% 30.17 in 10.0 mi East 3.5 mph - N/A   Clear
3:53 AM 45.0 °F 42.6 °F 37.9 °F 76% 30.18 in 10.0 mi ESE 4.6 mph - N/A   Clear
4:53 AM 45.0 °F 41.8 °F 37.0 °F 74% 30.19 in 10.0 mi East 5.8 mph - N/A   Clear
5:53 AM 45.0 °F 43.5 °F 36.0 °F 71% 30.20 in 10.0 mi East 3.5 mph - N/A   Partly Cloudy
6:53 AM 45.0 °F 43.5 °F 37.0 °F 74% 30.22 in 10.0 mi ENE 3.5 mph - N/A   Scattered Clouds
7:53 AM 46.9 °F - 37.9 °F 71% 30.23 in 10.0 mi Calm Calm - N/A   Scattered Clouds
8:53 AM 51.1 °F - 39.0 °F 63% 30.25 in 10.0 mi NE 10.4 mph - N/A   Clear
9:53 AM 53.1 °F - 36.0 °F 52% 30.26 in 10.0 mi NNE 9.2 mph - N/A   Partly Cloudy
10:53 AM 54.0 °F - 35.1 °F 49% 30.25 in 10.0 mi NE 5.8 mph - N/A   Clear
11:53 AM 54.0 °F - 34.0 °F 47% 30.22 in 10.0 mi North 6.9 mph - N/A   Clear
12:53 PM 55.9 °F - 33.1 °F 42% 30.19 in 10.0 mi Variable 5.8 mph - N/A   Clear
1:53 PM 57.0 °F - 34.0 °F 42% 30.18 in 10.0 mi NNW 8.1 mph - N/A   Clear
2:53 PM 59.0 °F - 34.0 °F 39% 30.17 in 10.0 mi WNW 6.9 mph - N/A   Clear
3:53 PM 59.0 °F - 33.1 °F 38% 30.17 in 10.0 mi WNW 8.1 mph - N/A   Clear
4:53 PM 55.0 °F - 34.0 °F 45% 30.17 in 10.0 mi NNW 3.5 mph - N/A   Clear
5:53 PM 54.0 °F - 35.1 °F 49% 30.18 in 10.0 mi Calm Calm - N/A   Clear
6:53 PM 48.0 °F - 36.0 °F 63% 30.20 in 10.0 mi Calm Calm - N/A   Clear
7:53 PM 48.0 °F - 37.0 °F 66% 30.21 in 10.0 mi Calm Calm - N/A   Clear
8:53 PM 46.9 °F - 37.0 °F 68% 30.21 in 10.0 mi Calm Calm - N/A   Clear
9:53 PM 44.1 °F - 37.0 °F 76% 30.21 in 10.0 mi Calm Calm - N/A   Clear
10:53 PM 46.0 °F 43.1 °F 37.0 °F 71% 30.22 in 10.0 mi East 5.8 mph - N/A   Clear
11:53 PM 46.9 °F - 35.1 °F 63% 30.21 in 10.0 mi East 3.5 mph - N/A   Clear